• Join FlightAware (Why Join?)
  • Login
  • US Flag 
06:55AM EDT


 

Airport Tracker/Info


-or-


 

Live Flight TrackerFlight Track Log ✈ AAL329 ✈ 07-Jul-2013 ✈ KORD - KDEN

Flight Track Log - Related Links

Times and Time Zones

All times are in EDT time to prevent confusion due to time zone crossing. See the AAL329 flight status page for this flight to view local times or setup timezone preferences in your user account.

Time Position Orientation Groundspeed Altitude Reporting Facility
EDT Latitude Longitude Course Direction KTS MPH feet Rate Location/Type
03:43PM 42.0022 -87.9544 261° West 177 204 34,000  Level Chicago Center
03:44PM 42.0178 -88.0350 285° West 226 260 3,700 -13,260 Descending Chicago Center
03:45PM 41.9357 -88.1857 257° West  Level FlightAware Approximate
03:45PM 42.0353 -88.1239 285° West 237 273 6,700  Level Chicago Center
03:46PM 41.9333 -88.3326 270° West  Level FlightAware Approximate
03:46PM 42.0458 -88.2242 278° West 273 314 9,200  Level Chicago Center
03:47PM 41.9155 -88.4768 261° West  Level FlightAware Approximate
03:48PM 41.8985 -88.6223 261° West  Level FlightAware Approximate
03:48PM 42.0311 -88.3294 259° West 287 330 11,800  Level Chicago Center
03:49PM 41.8813 -88.7676 261° West  Level FlightAware Approximate
03:49PM 42.0106 -88.4442 256° West 319 367 13,500  Level Chicago Center
03:50PM 41.9719 -88.5869 250° West 339 390 15,800 2,040 Climbing Chicago Center
03:51PM 41.9353 -88.7194 250° West 375 432 17,800 1,860 Climbing Chicago Center
03:52PM 41.9069 -88.8581 255° West 388 447 19,700 1,800 Climbing Chicago Center
03:53PM 41.8894 -89.0017 261° West 393 452 21,600 1,560 Climbing Chicago Center
03:54PM 41.8667 -89.1775 260° West 403 464 23,000 1,200 Climbing Chicago Center
03:55PM 41.8453 -89.3378 260° West 437 503 24,100 1,200 Climbing Chicago Center
03:56PM 41.8369 -89.5019 266° West 448 516 25,600 1,380 Climbing Chicago Center
03:57PM 41.8231 -89.6689 264° West 453 521 27,000 1,320 Climbing Chicago Center
03:58PM 41.8114 -89.8364 265° West 455 524 28,400 1,500 Climbing Chicago Center
03:59PM 41.7994 -90.0239 265° West 457 526 30,200 1,560 Climbing Chicago Center
04:00PM 41.7875 -90.1853 264° West 445 512 31,700 1,200 Climbing Chicago Center
04:01PM 41.7744 -90.3514 264° West 448 516 32,700 780 Climbing Chicago Center
04:02PM 41.7608 -90.5117 264° West 441 507 33,400 600 Climbing Chicago Center
04:03PM 41.7481 -90.6814 264° West 439 505 34,000 240 Climbing Chicago Center
04:04PM 41.7328 -90.8781 264° West 445 512 34,000  Level Chicago Center
04:05PM 41.7181 -91.0439 263° West 451 519 34,000  Level Chicago Center
04:06PM 41.7050 -91.2056 264° West 442 509 34,000  Level Chicago Center
04:07PM 41.6917 -91.3669 264° West 439 505 34,000  Level Chicago Center
04:08PM 41.6778 -91.5306 264° West 444 511 34,000  Level Chicago Center
04:09PM 41.6600 -91.7242 263° West 441 507 34,000  Level Chicago Center
04:10PM 41.6458 -91.8853 263° West 438 504 34,000  Level Chicago Center
04:11PM 41.6308 -92.0444 263° West 434 499 34,000  Level Chicago Center
04:12PM 41.6167 -92.2036 263° West 435 501 34,000  Level Chicago Center
04:13PM 41.6017 -92.3631 263° West 437 503 34,000  Level Chicago Center
04:14PM 41.5864 -92.5231 263° West 437 503 34,000  Level Chicago Center
04:15PM 41.5672 -92.7106 262° West 430 495 34,000  Level Chicago Center
04:16PM 41.5597 -92.7953 263° West 432 497 34,000  Level Minneapolis Center
04:17PM 41.5411 -92.9814 262° West 428 493 34,000  Level Minneapolis Center
04:18PM 41.5253 -93.1372 262° West 428 493 34,000  Level Minneapolis Center
04:19PM 41.5100 -93.2925 263° West 428 493 34,000  Level Minneapolis Center
04:20PM 41.4931 -93.4475 262° West 427 491 34,000  Level Minneapolis Center
04:21PM 41.4811 -93.5697 263° West 424 488 34,000  Level Minneapolis Center
04:22PM 41.4589 -93.7864 262° West 426 490 34,000  Level Minneapolis Center
04:23PM 41.4414 -93.9419 262° West 429 494 34,000  Level Minneapolis Center
04:24PM 41.4258 -94.0964 262° West 428 493 34,000  Level Minneapolis Center
04:25PM 41.4058 -94.2700 261° West 431 496 34,000  Level Minneapolis Center
04:26PM 41.3883 -94.4281 262° West 432 497 34,000  Level Minneapolis Center
04:27PM 41.3694 -94.5883 261° West 436 502 34,000  Level Minneapolis Center
04:29PM 41.3511 -94.7453 261° West 432 497 34,000  Level Minneapolis Center
04:30PM 41.3289 -94.9344 261° West 431 496 34,000  Level Minneapolis Center
04:31PM 41.3094 -95.0919 261° West 431 496 34,000  Level Minneapolis Center
04:32PM 41.2911 -95.2486 261° West 430 495 34,000  Level Minneapolis Center
04:33PM 41.2708 -95.4064 260° West 431 496 34,000  Level Minneapolis Center
04:34PM 41.2500 -95.5644 260° West 431 496 34,000  Level Minneapolis Center
04:35PM 41.2303 -95.7381 261° West 432 497 34,000  Level Minneapolis Center
04:36PM 41.2106 -95.8928 260° West 428 493 34,000  Level Minneapolis Center
04:37PM 41.1911 -96.0461 260° West 423 487 34,000  Level Minneapolis Center
04:38PM 41.1706 -96.1986 260° West 420 483 34,000  Level Minneapolis Center
04:39PM 41.1514 -96.3461 260° West 420 483 34,000  Level Minneapolis Center
04:40PM 41.1269 -96.5317 260° West 425 489 34,000  Level Minneapolis Center
04:41PM 41.1056 -96.6842 260° West 421 484 34,000  Level Minneapolis Center
04:42PM 41.0844 -96.8361 260° West 420 483 34,000  Level Minneapolis Center
04:43PM 41.0644 -96.9897 260° West 422 486 34,000  Level Minneapolis Center
04:44PM 41.0442 -97.1400 260° West 418 481 34,000  Level Minneapolis Center
04:45PM 41.0181 -97.3208 259° West 418 481 34,000  Level Minneapolis Center
04:46PM 40.9928 -97.5081 260° West 419 482 34,000  Level Minneapolis Center
04:47PM 40.9706 -97.6581 259° West 416 479 34,000  Level Minneapolis Center
04:48PM 40.9492 -97.8086 259° West 416 479 34,000  Level Minneapolis Center
04:49PM 40.9267 -97.9600 259° West 418 481 34,000  Level Minneapolis Center
04:50PM 40.9053 -98.1103 259° West 416 479 34,000  Level Minneapolis Center
04:51PM 40.8831 -98.2603 259° West 415 478 34,000  Level Minneapolis Center
04:53PM 40.8647 -98.3797 259° West 414 476 34,000  Level Minneapolis Center
04:54PM 40.8294 -98.6117 259° West 415 478 34,000  Level Minneapolis Center
04:55PM 40.8108 -98.7322 259° West 418 481 34,000  Level Minneapolis Center
04:56PM 40.7839 -98.9122 259° West 417 480 34,000  Level Minneapolis Center
04:57PM 40.7611 -99.0625 259° West 418 481 34,000  Level Minneapolis Center
04:58PM 40.7358 -99.2261 259° West 414 476 34,000  Level Minneapolis Center
04:59PM 40.7219 -99.3153 258° West 413 475 34,000  Level Denver Center
05:00PM 40.6931 -99.4931 258° West 414 476 34,000  Level Denver Center
05:01PM 40.6697 -99.6392 258° West 410 472 34,000  Level Denver Center
05:02PM 40.6447 -99.7864 257° West 410 472 34,000  Level Denver Center
05:03PM 40.6167 -99.9622 258° West 410 472 34,000  Level Denver Center
05:04PM 40.5939 -100.1008 258° West 406 467 34,000  Level Denver Center
05:05PM 40.5742 -100.2178 258° West 408 470 34,000  Level Denver Center
05:06PM 40.5422 -100.4047 257° West 408 470 34,000  Level Denver Center
05:07PM 40.5103 -100.5925 257° West 409 471 34,000  Level Denver Center
05:08PM 40.4864 -100.7342 258° West 412 474 34,000  Level Denver Center
05:09PM 40.4619 -100.8750 257° West 411 473 34,000  Level Denver Center
05:10PM 40.4633 -101.0411 271° West 408 470 34,000  Level Denver Center
05:11PM 40.4761 -101.1844 277° West 410 472 34,000  Level Denver Center
05:12PM 40.4903 -101.3467 277° West 397 457 34,000  Level Denver Center
05:13PM 40.5019 -101.4811 277° West 388 447 34,000  Level Denver Center
05:14PM 40.5144 -101.6364 276° West 385 443 34,000  Level Denver Center
05:15PM 40.5256 -101.7700 276° West 383 441 34,000  Level Denver Center
05:16PM 40.5378 -101.9247 276° West 382 440 34,000 -300 Level Denver Center
05:17PM 40.5492 -102.0575 276° West 382 440 33,500 -780 Descending Denver Center
05:19PM 40.5236 -102.1925 256° West 401 461 32,400 -720 Descending Denver Center
05:20PM 40.4928 -102.3583 256° West 416 479 32,000 -240 Descending Denver Center
05:21PM 40.4661 -102.4992 256° West 414 476 32,000  Level Denver Center
05:22PM 40.4283 -102.6950 256° West 418 481 32,000 -720 Level Denver Center
05:23PM 40.4003 -102.8428 256° West 419 482 30,500 -1,500 Descending Denver Center
05:24PM 40.3772 -102.9561 255° West 408 470 29,000 -1,620 Descending Denver Center
05:25PM 40.3453 -103.1250 256° West 398 458 27,200 -1,800 Descending Denver Center
05:26PM 40.3125 -103.2900 255° West 392 451 25,400 -1,620 Descending Denver Center
05:27PM 40.2858 -103.4242 255° West 385 443 23,900 -1,800 Descending Denver Center
05:28PM 40.2594 -103.5547 255° West 375 432 21,800 -2,040 Descending Denver Center
05:29PM 40.2344 -103.6794 255° West 360 414 19,700 -1,380 Descending Denver Center
05:30PM 40.2144 -103.7892 257° West 362 417 19,000 -360 Descending Denver Center
05:31PM 40.1606 -103.9119 240° Southwest 324 373 19,000 -600 Level Denver Center
05:32PM 40.1186 -104.0175 243° Southwest 316 364 17,800 -1,500 Descending Denver Center
05:33PM 40.1650 -104.1125 303° West 312 359 16,000 -1,800 Descending Denver Center
05:34PM 40.2064 -104.2189 297° West 309 356 14,100 -1,680 Descending Denver Center
05:35PM 40.2156 -104.3275 276° West 300 345 12,600 -1,020 Descending Denver Center
05:36PM 40.2283 -104.4344 279° West 279 321 12,100 -300 Descending Denver Center
05:37PM 40.2381 -104.5225 278° West 250 288 12,000 -840 Descending Denver Center
05:38PM 40.1867 -104.5906 225° Southwest 259 298 10,400 -1,320 Descending Denver Center
05:39PM 40.1267 -104.6378 211° Southwest 252 290 9,300 -1,080 Descending Denver Center